Location: Unspecified
(0.0000°N, 0.0000°E)
Time: 09:24:59
(UTC+01:00)

ATLAS V CENTAUR R/B - Visible Passes

Search period start: 23 January 2017 00:00
Search period end: 02 February 2017 00:00
Orbit: 227 x 28159 km, 18.0° (Epoch: 22 January)

Date Brightness Start Highest point End Pass type
(mag) Time Alt. Az. Time Alt. Az. Time Alt. Az.
23 Jan 9.0 20:05:07 10° WSW 20:33:23 60° SSE 03:26:53 10° ENE visible
24 Jan 9.1 20:34:32 10° WSW 21:17:32 64° SSE 03:57:25 10° ENE visible
25 Jan 9.0 21:03:46 10° WSW 01:49:22 87° NE 04:27:06 10° ENE visible
26 Jan 8.8 21:32:49 10° WSW 01:15:32 87° SW 04:56:02 10° ENE visible
27 Jan 8.7 22:01:45 10° WSW 00:49:53 81° SW 05:24:17 10° ENE visible
28 Jan 8.5 22:30:38 10° WSW 00:52:51 74° WSW 05:51:57 10° ENE visible
29 Jan 8.4 22:59:33 10° WSW 01:10:31 66° WSW 06:19:03 10° ENE visible
30 Jan 8.2 23:28:39 10° WSW 01:32:47 58° WSW 06:45:38 10° ENE visible
31 Jan 8.0 23:58:05 10° WSW 01:56:31 50° W 07:11:43 10° ENE visible
